{"data":{"norad_id":60487,"epoch":"2026-05-25T04:38:57.642144Z","epoch_age_seconds":58005,"freshness":"FRESH","line1":"1 60487U 24149V   26145.19372271  .00013581  00000+0  36355-3 0  9997","line2":"2 60487  97.3796 228.1994 0001724  31.4798 328.6550 15.38147854 98708","mean_motion":15.38147854,"eccentricity":0.0001724,"inclination_deg":97.3796,"raan_deg":228.1994,"arg_perigee_deg":31.4798,"mean_anomaly_deg":328.655,"bstar":0.00036355,"rev_number":9870,"period_min":93.619088454679,"perigee_km":450.4090086936,"apogee_km":452.7638973402,"semimajor_km":6829.7234530169,"source":"CELESTRAK","updated_at":"2026-05-25T13:38:13.302864Z"}}